Port Isabel, TX

4:44 PM CDT on August 20, 2017 (GMT -0500)
Port Isabel-Cameron County

Weather History for KPIL - April, 2013

Change the Weather History Date:

Friday, April 26, 2013

  Actual Average (KBRO) Record (KBRO)
Temperature  
Mean Temperature 74 °F -  
Max Temperature 80 °F 83 °F 104 °F (2017)
Min Temperature 69 °F 66 °F 43 °F (1881)
Cooling Degree Days 10    
Growing Degree Days 24 (Base 50)    
Moisture  
Dew Point 71 °F    
Average Humidity 86    
Maximum Humidity 97    
Minimum Humidity 76    
Precipitation  
Precipitation 0.00 in - - ()
Sea Level Pressure  
Sea Level Pressure 30.09 in    
Wind  
Wind Speed 6 mph (SSE)    
Max Wind Speed 24 mph    
Max Gust Speed 30 mph    
Visibility 4 miles    
Events Fog    
Averages and records for this station are not official NWS values.
T = Trace of Precipitation, MM = Missing Value Source: NWS Daily Summary

Daily Weather History Graph

Daily Weather History Graph

Search for Another Location

Airport or City:

Trip Planner

Search our weather history database for the weather conditions in past years. The results will help you decide how hot, cold, wet, or windy it might be!

Date:

Astronomy

Apr. 26, 2013 Rise Set
Actual Time 6:55 AM CDT 7:58 PM CDT
Civil Twilight 6:31 AM CDT 8:22 PM CDT
Nautical Twilight 6:03 AM CDT 8:51 PM CDT
Astronomical Twilight 5:34 AM CDT 9:20 PM CDT
Moon 9:15 PM CDT (4/26) 7:29 AM CDT (4/26)
Length of Visible Light 13h 51m
Length of Day
13h 02m
Full, 99% of the Moon is Illuminated
Apr 26
Full
May 2
Last Quarter
May 9
New
May 17
First Quarter
May 24
Full

Hourly Weather History & Observations

Time (CDT) Temp. Heat Index Dew Point Humidity Pressure Visibility Wind Dir Wind Speed Gust Speed Precip Events Conditions
12:13 AM - - - N/A% 30.17 in 3.0 mi West 3.5 mph - N/A   Overcast
12:53 AM - - - N/A% 30.16 in 3.0 mi WNW 4.6 mph - N/A   Overcast
1:10 AM - - - N/A% 30.15 in 2.0 mi NW 3.5 mph - N/A   Overcast
1:44 AM - - - N/A% 30.14 in 3.0 mi Calm Calm - N/A   Overcast
1:53 AM - - - N/A% 30.14 in 2.0 mi Calm Calm - N/A   Overcast
2:02 AM - - - N/A% 30.13 in 1.2 mi Calm Calm - N/A   Overcast
2:30 AM - - - N/A% 30.12 in 0.8 mi Calm Calm - N/A   Mist
2:53 AM - - - N/A% 30.12 in 0.5 mi Calm Calm - N/A Fog Fog
3:31 AM - - - N/A% 30.11 in 0.2 mi Calm Calm - N/A Fog Fog
3:44 AM - - - N/A% 30.10 in 0.5 mi Calm Calm - N/A Fog Fog
3:53 AM - - - N/A% 30.11 in 0.5 mi Calm Calm - N/A Fog Fog
4:09 AM - - - N/A% 30.09 in 0.2 mi Calm Calm - N/A Fog Fog
4:53 AM - - - N/A% 30.08 in 0.2 mi South 3.5 mph - N/A Fog Fog
5:48 AM - - - N/A% 30.06 in 0.5 mi SSE 3.5 mph - N/A Fog Fog
5:53 AM - - - N/A% 30.08 in 0.5 mi SSE 3.5 mph - N/A Fog Fog
6:21 AM - - - N/A% 30.07 in 0.2 mi South 3.5 mph - N/A Fog Fog
6:53 AM - - - N/A% 30.09 in 0.2 mi South 4.6 mph - N/A Fog Fog
7:41 AM - - - N/A% 30.10 in 0.8 mi SSE 5.8 mph - N/A   Mist
7:51 AM - - - N/A% 30.11 in 1.2 mi South 6.9 mph - N/A   Overcast
7:53 AM - - - N/A% 30.12 in 1.2 mi SSE 5.8 mph - N/A   Overcast
8:18 AM - - - N/A% 30.11 in 2.0 mi SSE 6.9 mph - N/A   Overcast
8:53 AM - - - N/A% 30.12 in 2.5 mi SSE 5.8 mph - N/A   Overcast
9:06 AM - - - N/A% 30.11 in 3.0 mi South 5.8 mph - N/A   Overcast
9:41 AM 69.8 °F - 68.0 °F 94% 30.11 in 4.0 mi SSE 9.2 mph - N/A   Overcast
9:53 AM 70.0 °F - 69.1 °F 97% 30.12 in 4.0 mi SSE 6.9 mph - N/A   Overcast
10:33 AM 71.6 °F - 69.8 °F 94% 30.11 in 5.0 mi SE 6.9 mph - N/A   Overcast
10:53 AM 73.0 °F - 70.0 °F 90% 30.11 in 6.0 mi SE 8.1 mph - N/A   Overcast
11:35 AM 75.2 °F - 71.6 °F 89% 30.10 in 7.0 mi SE 16.1 mph - N/A   Overcast
11:53 AM 77.0 °F - 72.0 °F 84% 30.10 in 8.0 mi SE 17.3 mph - N/A   Overcast
12:08 PM - - - N/A% 30.10 in 8.0 mi SE 17.3 mph 24.2 mph N/A   Overcast
12:53 PM 79.0 °F - 71.1 °F 77% 30.08 in 9.0 mi SE 19.6 mph 27.6 mph N/A   Overcast
1:53 PM 80.1 °F 83.8 °F 72.0 °F 76% 30.06 in 8.0 mi SE 19.6 mph 29.9 mph N/A   Overcast
2:53 PM 80.1 °F 83.8 °F 72.0 °F 76% 30.05 in 8.0 mi SE 20.7 mph 29.9 mph N/A   Mostly Cloudy
3:53 PM 78.1 °F - 71.1 °F 79% 30.02 in 9.0 mi SE 23.0 mph - N/A   Overcast
4:53 PM 79.0 °F - 71.1 °F 77% 30.01 in 9.0 mi SSE 21.9 mph 27.6 mph N/A   Mostly Cloudy
5:39 PM 78.8 °F - 71.6 °F 78% 30.00 in 9.0 mi SE 21.9 mph 27.6 mph N/A   Overcast
5:53 PM 77.0 °F - 71.1 °F 82% 30.00 in 9.0 mi SSE 24.2 mph 28.8 mph N/A   Mostly Cloudy
6:53 PM 75.9 °F - 71.1 °F 85% 30.01 in 8.0 mi SSE 20.7 mph 26.5 mph N/A   Overcast
7:53 PM 75.0 °F - 71.1 °F 87% 30.04 in 7.0 mi SSE 16.1 mph 26.5 mph N/A   Overcast
8:53 PM 73.9 °F - 72.0 °F 93% 30.04 in 7.0 mi SSE 17.3 mph 25.3 mph N/A   Overcast
9:53 PM 73.9 °F - 72.0 °F 93% 30.05 in 7.0 mi SE 15.0 mph - N/A   Overcast
10:53 PM 73.0 °F - 71.1 °F 93% 30.06 in 7.0 mi SE 16.1 mph - N/A   Overcast
11:53 PM 73.0 °F - 71.1 °F 93% 30.06 in 6.0 mi SE 12.7 mph - N/A   Overcast